Weather History for KCLL - February, 2013

Change the Weather History Date:

Monday, February 11, 2013

  Actual Average Record
Temperature  
Mean Temperature 56 °F 54 °F  
Max Temperature 61 °F 64 °F 84 °F (1922)
Min Temperature 51 °F 44 °F 17 °F (1981)
Degree Days  
Heating Degree Days 9 12  
Month to date heating degree days 40 138  
Since 1 July heating degree days 892 1216  
Cooling Degree Days 0 1  
Month to date cooling degree days 4 8  
Year to date cooling degree days 32 19  
Growing Degree Days 6 (Base 50)    
Moisture  
Dew Point 47 °F    
Average Humidity 68    
Maximum Humidity 83    
Minimum Humidity 53    
Precipitation  
Precipitation 0.19 in 0.11 in 1.15 in (2004)
Month to date precipitation 0.67 1.13  
Year to date precipitation 5.73 4.37  
Sea Level Pressure  
Sea Level Pressure 30.03 in    
Wind  
Wind Speed 10 mph (NE)    
Max Wind Speed 20 mph    
Max Gust Speed 24 mph    
Visibility 10 miles    
Events Rain , Thunderstorm    
T = Trace of Precipitation, MM = Missing Value Source: NWS Daily Summary

Daily Weather History Graph

Daily Weather History Graph

Search for Another Location

Airport or City:

Trip Planner

Search our weather history database for the weather conditions in past years. The results will help you decide how hot, cold, wet, or windy it might be!

Date:

Astronomy

Feb. 11, 2013 Rise Set
Actual Time 7:09 AM CST 6:10 PM CST
Civil Twilight 6:44 AM CST 6:35 PM CST
Nautical Twilight 6:16 AM CST 7:03 PM CST
Astronomical Twilight 5:47 AM CST 7:31 PM CST
Moon 7:44 AM CST (2/11) 7:56 PM CST (2/11)
Length of Visible Light 11h 50m
Length of Day
11h 01m
Waxing Crescent, 3% of the Moon is Illuminated
Feb 11
Waxing Crescent
Feb 17
First Quarter
Feb 25
Full
Mar 4
Last Quarter
Mar 11
New

Hourly Weather History & Observations

Time (CST) Temp. Dew Point Humidity Pressure Visibility Wind Dir Wind Speed Gust Speed Precip Events Conditions
12:53 AM 59.0 °F 42.1 °F 53% 30.02 in 10.0 mi East 3.5 mph - N/A   Overcast
1:53 AM 57.9 °F 44.1 °F 60% 30.01 in 10.0 mi NNW 5.8 mph - 0.00 in Rain Light Rain
2:53 AM 57.0 °F 45.0 °F 64% 30.01 in 10.0 mi North 6.9 mph - 0.01 in   Overcast
3:53 AM 57.9 °F 44.1 °F 60% 30.03 in 10.0 mi NNE 3.5 mph - 0.00 in   Overcast
4:53 AM 55.0 °F 46.0 °F 72% 30.01 in 10.0 mi ENE 8.1 mph - 0.00 in Rain Light Rain
5:53 AM 53.6 °F 46.4 °F 77% 30.03 in 10.0 mi East 6.9 mph - N/A Rain Light Rain
6:53 AM 51.1 °F 46.0 °F 83% 29.97 in 10.0 mi East 13.8 mph - 0.16 in   Overcast
7:53 AM 52.0 °F 45.0 °F 77% 29.99 in 10.0 mi NE 11.5 mph - N/A   Scattered Clouds
8:53 AM 54.0 °F 45.0 °F 72% 30.05 in 10.0 mi East 5.8 mph - N/A   Mostly Cloudy
9:53 AM 55.9 °F 46.0 °F 69% 30.09 in 10.0 mi East 6.9 mph - N/A   Overcast
10:53 AM 59.0 °F 45.0 °F 60% 30.08 in 10.0 mi ENE 8.1 mph - N/A   Overcast
11:53 AM 60.1 °F 46.0 °F 60% 30.06 in 10.0 mi ENE 10.4 mph - N/A   Overcast
12:43 PM 57.2 °F 46.4 °F 67% 30.10 in 10.0 mi North 8.1 mph - 0.00 in Rain , Thunderstorm Light Rain
12:53 PM 57.9 °F 46.9 °F 67% 30.07 in 10.0 mi ENE 5.8 mph - 0.00 in Thunderstorm Overcast
1:09 PM 57.2 °F 46.4 °F 67% 30.07 in 10.0 mi NE 11.5 mph - 0.00 in Rain Light Rain
1:53 PM 57.0 °F 48.0 °F 72% 30.05 in 10.0 mi NNE 16.1 mph - 0.00 in   Overcast
2:53 PM 55.9 °F 46.9 °F 72% 30.04 in 10.0 mi ENE 11.5 mph 20.7 mph N/A   Overcast
3:53 PM 55.9 °F 48.0 °F 75% 30.00 in 10.0 mi NE 12.7 mph - 0.00 in   Overcast
4:53 PM 55.0 °F 48.0 °F 77% 29.99 in 10.0 mi ENE 10.4 mph - N/A   Overcast
5:41 PM 55.4 °F 48.2 °F 77% 30.01 in 10.0 mi NE 9.2 mph - N/A   Overcast
5:53 PM 55.0 °F 48.9 °F 80% 30.01 in 10.0 mi ENE 13.8 mph - N/A   Overcast
6:53 PM 55.0 °F 48.0 °F 77% 30.02 in 10.0 mi NE 9.2 mph - N/A   Overcast
7:53 PM 55.0 °F 48.0 °F 77% 30.02 in 10.0 mi ENE 15.0 mph 20.7 mph N/A   Overcast
8:53 PM 55.0 °F 48.0 °F 77% 30.02 in 10.0 mi NE 12.7 mph - N/A   Overcast
9:53 PM 54.0 °F 48.0 °F 80% 30.01 in 10.0 mi ENE 11.5 mph 19.6 mph N/A   Overcast
10:53 PM 54.0 °F 48.0 °F 80% 29.99 in 10.0 mi ENE 13.8 mph 19.6 mph N/A   Overcast
11:53 PM 54.0 °F 48.0 °F 80% 29.98 in 10.0 mi ENE 10.4 mph - N/A   Overcast